Time,TemperatureF,DewpointF,PressureIn,WindDirection,WindDirectionDegrees,WindSpeedMPH,WindSpeedGustMPH,Humidity,HourlyPrecipIn,Conditions,Clouds,dailyrainin,SoftwareType,DateUTC
2013-02-22 00:00:00,29.6,23.6,30.08,North,360,4.0,4.0,78,0.00,,,0.00,Wunderground v.1.15,2013-02-22 05:00:00,
2013-02-22 00:05:00,29.6,23.6,30.08,NW,307,3.0,4.0,78,0.00,,,0.00,Wunderground v.1.15,2013-02-22 05:05:00,
2013-02-22 00:10:00,29.6,23.6,30.09,NNW,334,4.0,4.0,78,0.00,,,0.00,Wunderground v.1.15,2013-02-22 05:10:00,
2013-02-22 00:15:00,29.6,23.6,30.09,NNW,333,4.0,4.0,78,0.00,,,0.00,Wunderground v.1.15,2013-02-22 05:15:00,
2013-02-22 00:25:00,29.5,23.5,30.09,NW,323,4.0,5.0,78,0.00,,,0.00,Wunderground v.1.15,2013-02-22 05:25:00,
2013-02-22 00:30:00,29.5,23.5,30.10,North,359,4.0,5.0,78,0.00,,,0.00,Wunderground v.1.15,2013-02-22 05:30:00,
2013-02-22 00:40:00,29.4,23.4,30.10,NNE,21,4.0,4.0,78,0.00,,,0.00,Wunderground v.1.15,2013-02-22 05:40:00,
2013-02-22 00:45:00,29.5,23.8,30.11,NW,324,4.0,4.0,79,0.00,,,0.00,Wunderground v.1.15,2013-02-22 05:45:00,
2013-02-22 00:55:00,29.9,24.5,30.13,NNW,333,7.0,7.0,80,0.00,,,0.00,Wunderground v.1.15,2013-02-22 05:55:00,
2013-02-22 01:00:00,30.0,24.3,30.12,NNE,20,6.0,8.0,79,0.00,,,0.00,Wunderground v.1.15,2013-02-22 06:00:00,
2013-02-22 01:10:00,30.1,24.4,30.13,NNW,343,5.0,5.0,79,0.00,,,0.00,Wunderground v.1.15,2013-02-22 06:10:00,
2013-02-22 01:15:00,30.2,24.5,30.14,NNW,341,4.0,6.0,79,0.00,,,0.00,Wunderground v.1.15,2013-02-22 06:15:00,
2013-02-22 01:20:00,30.3,24.6,30.15,North,349,5.0,6.0,79,0.00,,,0.00,Wunderground v.1.15,2013-02-22 06:20:00,
2013-02-22 01:30:00,30.5,24.5,30.14,NE,43,5.0,5.0,78,0.00,,,0.00,Wunderground v.1.15,2013-02-22 06:30:00,
2013-02-22 01:35:00,30.6,24.6,30.15,NNW,338,6.0,6.0,78,0.00,,,0.00,Wunderground v.1.15,2013-02-22 06:35:00,
2013-02-22 01:45:00,30.8,24.7,30.16,NNW,331,8.0,13.0,78,0.00,,,0.00,Wunderground v.1.15,2013-02-22 06:45:00,
2013-02-22 01:55:00,30.9,24.5,30.16,NNW,333,7.0,9.0,77,0.00,,,0.00,Wunderground v.1.15,2013-02-22 06:55:00,
2013-02-22 02:00:00,30.9,24.8,30.16,NNW,337,6.0,6.0,78,0.00,,,0.00,Wunderground v.1.15,2013-02-22 07:00:00,
2013-02-22 02:10:00,30.9,24.5,30.16,NW,323,5.0,5.0,77,0.00,,,0.00,Wunderground v.1.15,2013-02-22 07:10:00,
2013-02-22 02:20:00,31.0,26.1,30.16,NNW,335,6.0,6.0,82,0.00,,,0.00,Wunderground v.1.15,2013-02-22 07:20:00,
2013-02-22 02:25:00,31.0,24.6,30.16,NW,325,6.0,6.0,77,0.00,,,0.00,Wunderground v.1.15,2013-02-22 07:25:00,
2013-02-22 02:35:00,31.1,24.4,30.16,NNW,346,6.0,6.0,76,0.00,,,0.00,Wunderground v.1.15,2013-02-22 07:35:00,
2013-02-22 02:40:00,31.1,24.4,30.16,NNW,329,6.0,6.0,76,0.00,,,0.00,Wunderground v.1.15,2013-02-22 07:40:00,
2013-02-22 02:50:00,31.0,24.3,30.17,NNW,339,6.0,6.0,76,0.00,,,0.00,Wunderground v.1.15,2013-02-22 07:50:00,
2013-02-22 03:00:00,30.8,24.1,30.17,North,1,6.0,6.0,76,0.00,,,0.00,Wunderground v.1.15,2013-02-22 08:00:00,
2013-02-22 03:10:00,30.7,24.0,30.17,NNE,21,6.0,6.0,76,0.00,,,0.00,Wunderground v.1.15,2013-02-22 08:10:00,
2013-02-22 03:20:00,30.5,23.8,30.17,NNW,348,6.0,6.0,76,0.00,,,0.00,Wunderground v.1.15,2013-02-22 08:20:00,
2013-02-22 03:25:00,30.5,24.1,30.17,NNW,329,6.0,7.0,77,0.00,,,0.00,Wunderground v.1.15,2013-02-22 08:25:00,
2013-02-22 03:35:00,30.4,24.1,30.18,NNW,346,6.0,6.0,77,0.00,,,0.00,Wunderground v.1.15,2013-02-22 08:35:00,
2013-02-22 03:40:00,30.3,24.0,30.18,NNW,346,5.0,6.0,77,0.00,,,0.00,Wunderground v.1.15,2013-02-22 08:40:00,
2013-02-22 03:50:00,30.2,23.9,30.19,NNW,336,5.0,5.0,77,0.00,,,0.00,Wunderground v.1.15,2013-02-22 08:50:00,
2013-02-22 04:00:00,30.1,23.8,30.19,NNE,13,5.0,5.0,77,0.00,,,0.00,Wunderground v.1.15,2013-02-22 09:00:00,
2013-02-22 04:10:00,29.9,23.3,30.20,NNE,24,3.0,3.0,76,0.00,,,0.00,Wunderground v.1.15,2013-02-22 09:10:00,
2013-02-22 04:15:00,29.6,23.0,30.20,NNE,23,3.0,3.0,76,0.00,,,0.00,Wunderground v.1.15,2013-02-22 09:15:00,
2013-02-22 04:25:00,29.5,23.2,30.20,NNE,23,2.0,2.0,77,0.00,,,0.00,Wunderground v.1.15,2013-02-22 09:25:00,
2013-02-22 04:30:00,29.3,23.0,30.21,North,4,2.0,2.0,77,0.00,,,0.00,Wunderground v.1.15,2013-02-22 09:30:00,
2013-02-22 04:40:00,29.2,22.9,30.21,North,356,3.0,4.0,77,0.00,,,0.00,Wunderground v.1.15,2013-02-22 09:40:00,
2013-02-22 04:45:00,29.1,22.8,30.22,NNE,23,2.0,4.0,77,0.00,,,0.00,Wunderground v.1.15,2013-02-22 09:45:00,
2013-02-22 04:55:00,29.1,22.8,30.22,North,352,3.0,3.0,77,0.00,,,0.00,Wunderground v.1.15,2013-02-22 09:55:00,
2013-02-22 05:00:00,28.9,22.6,30.22,North,356,2.0,2.0,77,0.00,,,0.00,Wunderground v.1.15,2013-02-22 10:00:00,
2013-02-22 05:10:00,28.6,22.3,30.22,ENE,62,1.0,2.0,77,0.00,,,0.00,Wunderground v.1.15,2013-02-22 10:10:00,
2013-02-22 05:15:00,28.5,22.2,30.22,NE,55,1.0,2.0,77,0.00,,,0.00,Wunderground v.1.15,2013-02-22 10:15:00,
2013-02-22 05:20:00,28.4,22.1,30.22,NE,56,1.0,1.0,77,0.00,,,0.00,Wunderground v.1.15,2013-02-22 10:20:00,
2013-02-22 05:30:00,28.5,22.2,30.22,North,6,2.0,2.0,77,0.00,,,0.00,Wunderground v.1.15,2013-02-22 10:30:00,
2013-02-22 05:35:00,28.5,22.2,30.23,NNE,15,2.0,5.0,77,0.00,,,0.00,Wunderground v.1.15,2013-02-22 10:35:00,
2013-02-22 05:45:00,28.5,22.2,30.23,North,358,2.0,4.0,77,0.00,,,0.00,Wunderground v.1.15,2013-02-22 10:45:00,
2013-02-22 05:55:00,28.3,22.0,30.23,NE,35,2.0,2.0,77,0.00,,,0.00,Wunderground v.1.15,2013-02-22 10:55:00,
2013-02-22 06:01:00,28.2,21.9,30.24,NNW,337,1.0,1.0,77,0.00,,,0.00,Wunderground v.1.15,2013-02-22 11:01:00,
2013-02-22 06:10:00,28.0,21.7,30.24,North,7,2.0,2.0,77,0.00,,,0.00,Wunderground v.1.15,2013-02-22 11:10:00,
2013-02-22 06:20:00,27.8,21.5,30.24,North,355,1.0,1.0,77,0.00,,,0.00,Wunderground v.1.15,2013-02-22 11:20:00,
2013-02-22 06:25:00,27.6,21.3,30.24,SSW,198,1.0,5.0,77,0.00,,,0.00,Wunderground v.1.15,2013-02-22 11:25:00,
2013-02-22 06:35:00,27.6,21.3,30.25,SSW,204,1.0,1.0,77,0.00,,,0.00,Wunderground v.1.15,2013-02-22 11:35:00,
2013-02-22 06:40:00,27.6,21.3,30.25,SW,231,1.0,1.0,77,0.00,,,0.00,Wunderground v.1.15,2013-02-22 11:40:00,
2013-02-22 06:50:00,27.6,21.3,30.27,WSW,241,0.0,0.0,77,0.00,,,0.00,Wunderground v.1.15,2013-02-22 11:50:00,
2013-02-22 06:55:00,27.6,21.3,30.27,WSW,250,0.0,0.0,77,0.00,,,0.00,Wunderground v.1.15,2013-02-22 11:55:00,
2013-02-22 07:01:00,27.6,21.3,30.27,West,273,1.0,2.0,77,0.00,,,0.00,Wunderground v.1.15,2013-02-22 12:01:00,
2013-02-22 07:10:00,27.7,21.1,30.28,WNW,284,1.0,1.0,76,0.00,,,0.00,Wunderground v.1.15,2013-02-22 12:10:00,
2013-02-22 07:20:00,27.6,21.0,30.29,WNW,287,1.0,2.0,76,0.00,,,0.00,Wunderground v.1.15,2013-02-22 12:20:00,
2013-02-22 07:25:00,27.7,21.4,30.29,NW,306,1.0,2.0,77,0.00,,,0.00,Wunderground v.1.15,2013-02-22 12:25:00,
2013-02-22 07:35:00,27.9,21.3,30.30,North,359,1.0,1.0,76,0.00,,,0.00,Wunderground v.1.15,2013-02-22 12:35:00,
2013-02-22 07:40:00,28.0,21.4,30.30,North,359,1.0,1.0,76,0.00,,,0.00,Wunderground v.1.15,2013-02-22 12:40:00,
2013-02-22 07:50:00,28.4,21.8,30.31,North,358,2.0,7.0,76,0.00,,,0.00,Wunderground v.1.15,2013-02-22 12:50:00,
2013-02-22 08:00:00,28.8,21.9,30.33,North,357,2.0,6.0,75,0.00,,,0.00,Wunderground v.1.15,2013-02-22 13:00:00,
2013-02-22 08:10:00,29.2,22.3,30.32,NNW,339,2.0,2.0,75,0.00,,,0.00,Wunderground v.1.15,2013-02-22 13:10:00,
2013-02-22 08:15:00,29.4,22.1,30.33,NNW,338,3.0,3.0,74,0.00,,,0.00,Wunderground v.1.15,2013-02-22 13:15:00,
2013-02-22 08:20:00,29.6,22.3,30.33,NNW,346,3.0,4.0,74,0.00,,,0.00,Wunderground v.1.15,2013-02-22 13:20:00,
2013-02-22 08:30:00,29.8,22.2,30.33,NNW,348,2.0,4.0,73,0.00,,,0.00,Wunderground v.1.15,2013-02-22 13:30:00,
2013-02-22 08:40:00,30.2,22.6,30.32,North,354,2.0,2.0,73,0.00,,,0.00,Wunderground v.1.15,2013-02-22 13:40:00,
2013-02-22 08:45:00,30.5,22.5,30.32,NNE,18,2.0,2.0,72,0.00,,,0.00,Wunderground v.1.15,2013-02-22 13:45:00,
2013-02-22 08:55:00,30.9,22.6,30.32,NNW,342,2.0,6.0,71,0.00,,,0.00,Wunderground v.1.15,2013-02-22 13:55:00,
2013-02-22 09:01:00,31.1,22.1,30.32,NE,45,3.0,3.0,69,0.00,,,0.00,Wunderground v.1.15,2013-02-22 14:01:00,
2013-02-22 09:10:00,31.5,22.1,30.33,NNE,19,2.0,2.0,68,0.00,,,0.00,Wunderground v.1.15,2013-02-22 14:10:00,
2013-02-22 09:20:00,32.0,21.9,30.33,East,94,2.0,3.0,66,0.00,,,0.00,Wunderground v.1.15,2013-02-22 14:20:00,
2013-02-22 09:25:00,32.2,22.1,30.33,NNE,17,2.0,4.0,66,0.00,,,0.00,Wunderground v.1.15,2013-02-22 14:25:00,
2013-02-22 09:35:00,32.5,22.0,30.33,NE,50,2.0,4.0,65,0.00,,,0.00,Wunderground v.1.15,2013-02-22 14:35:00,
2013-02-22 09:45:00,32.7,21.9,30.32,North,1,3.0,3.0,64,0.00,,,0.00,Wunderground v.1.15,2013-02-22 14:45:00,
2013-02-22 09:51:00,32.9,22.4,30.32,North,4,3.0,3.0,65,0.00,,,0.00,Wunderground v.1.15,2013-02-22 14:51:00,
2013-02-22 10:01:00,33.2,22.0,30.32,North,6,3.0,3.0,63,0.00,,,0.00,Wunderground v.1.15,2013-02-22 15:01:00,
2013-02-22 10:10:00,33.7,22.1,30.32,NW,318,3.0,3.0,62,0.00,,,0.00,Wunderground v.1.15,2013-02-22 15:10:00,
2013-02-22 10:20:00,34.1,21.7,30.32,North,353,3.0,3.0,60,0.00,,,0.00,Wunderground v.1.15,2013-02-22 15:20:00,
2013-02-22 10:25:00,34.4,21.9,30.32,North,351,3.0,3.0,60,0.00,,,0.00,Wunderground v.1.15,2013-02-22 15:25:00,
2013-02-22 10:35:00,34.8,21.9,30.32,NNW,344,3.0,4.0,59,0.00,,,0.00,Wunderground v.1.15,2013-02-22 15:35:00,
2013-02-22 10:40:00,35.3,22.4,30.32,ENE,67,2.0,2.0,59,0.00,,,0.00,Wunderground v.1.15,2013-02-22 15:40:00,
2013-02-22 10:50:00,35.3,22.8,30.32,NNE,20,3.0,3.0,60,0.00,,,0.00,Wunderground v.1.15,2013-02-22 15:50:00,
2013-02-22 11:01:00,36.1,22.7,30.31,WNW,297,2.0,2.0,58,0.00,,,0.00,Wunderground v.1.15,2013-02-22 16:01:00,
2013-02-22 11:10:00,36.3,22.9,30.31,North,5,2.0,2.0,58,0.00,,,0.00,Wunderground v.1.15,2013-02-22 16:10:00,
2013-02-22 11:16:00,36.6,22.8,30.31,North,349,2.0,2.0,57,0.00,,,0.00,Wunderground v.1.15,2013-02-22 16:16:00,
2013-02-22 11:25:00,36.8,22.6,30.31,NNW,346,2.0,7.0,56,0.00,,,0.00,Wunderground v.1.15,2013-02-22 16:25:00,
2013-02-22 11:31:00,36.4,22.6,30.31,North,359,3.0,3.0,57,0.00,,,0.00,Wunderground v.1.15,2013-02-22 16:31:00,
2013-02-22 11:40:00,37.4,22.7,30.31,ENE,58,2.0,2.0,55,0.00,,,0.00,Wunderground v.1.15,2013-02-22 16:40:00,
2013-02-22 11:46:00,37.7,23.0,30.30,NNE,27,2.0,2.0,55,0.00,,,0.00,Wunderground v.1.15,2013-02-22 16:46:00,
2013-02-22 11:55:00,37.6,22.9,30.30,NNW,342,2.0,2.0,55,0.00,,,0.00,Wunderground v.1.15,2013-02-22 16:55:00,
2013-02-22 12:01:00,37.7,22.5,30.30,North,354,2.0,2.0,54,0.00,,,0.00,Wunderground v.1.15,2013-02-22 17:01:00,
2013-02-22 12:11:00,37.7,22.5,30.30,North,354,2.0,8.0,54,0.00,,,0.00,Wunderground v.1.15,2013-02-22 17:11:00,
2013-02-22 12:20:00,37.2,22.9,30.30,NNW,332,4.0,4.0,56,0.00,,,0.00,Wunderground v.1.15,2013-02-22 17:20:00,
2013-02-22 12:26:00,37.4,23.5,30.29,NNW,335,3.0,4.0,57,0.00,,,0.00,Wunderground v.1.15,2013-02-22 17:26:00,
2013-02-22 12:31:00,37.5,22.8,30.29,NNW,334,3.0,8.0,55,0.00,,,0.00,Wunderground v.1.15,2013-02-22 17:31:00,
2013-02-22 12:40:00,36.9,22.2,30.29,North,356,4.0,4.0,55,0.00,,,0.00,Wunderground v.1.15,2013-02-22 17:40:00,
2013-02-22 12:45:00,37.0,22.3,30.29,NNE,14,3.0,4.0,55,0.00,,,0.00,Wunderground v.1.15,2013-02-22 17:45:00,
2013-02-22 12:50:00,37.4,21.8,30.29,East,88,2.0,2.0,53,0.00,,,0.00,Wunderground v.1.15,2013-02-22 17:50:00,
2013-02-22 12:55:00,37.7,23.0,30.29,North,351,2.0,4.0,55,0.00,,,0.00,Wunderground v.1.15,2013-02-22 17:55:00,
2013-02-22 13:01:00,37.8,22.2,30.29,North,356,2.0,2.0,53,0.00,,,0.00,Wunderground v.1.15,2013-02-22 18:01:00,
2013-02-22 13:10:00,38.3,22.6,30.29,North,6,1.0,4.0,53,0.00,,,0.00,Wunderground v.1.15,2013-02-22 18:10:00,
2013-02-22 13:15:00,38.1,22.0,30.29,North,358,1.0,4.0,52,0.00,,,0.00,Wunderground v.1.15,2013-02-22 18:15:00,
2013-02-22 13:21:00,38.3,23.1,30.29,North,357,2.0,2.0,54,0.00,,,0.00,Wunderground v.1.15,2013-02-22 18:21:00,
2013-02-22 13:26:00,38.3,21.7,30.29,West,267,1.0,2.0,51,0.00,,,0.00,Wunderground v.1.15,2013-02-22 18:26:00,
2013-02-22 13:36:00,38.9,21.8,30.29,WSW,246,1.0,2.0,50,0.00,,,0.00,Wunderground v.1.15,2013-02-22 18:36:00,
2013-02-22 13:46:00,38.4,23.2,30.28,NNW,333,5.0,5.0,54,0.00,,,0.00,Wunderground v.1.15,2013-02-22 18:46:00,
2013-02-22 13:55:00,38.7,22.6,30.28,NNW,333,3.0,6.0,52,0.00,,,0.00,Wunderground v.1.15,2013-02-22 18:55:00,
2013-02-22 14:01:00,39.0,21.9,30.28,NNW,333,1.0,5.0,50,0.00,,,0.00,Wunderground v.1.15,2013-02-22 19:01:00,
2013-02-22 14:11:00,38.2,23.0,30.28,NNW,333,2.0,2.0,54,0.00,,,0.00,Wunderground v.1.15,2013-02-22 19:11:00,
2013-02-22 14:16:00,38.4,22.3,30.28,NNW,333,2.0,2.0,52,0.00,,,0.00,Wunderground v.1.15,2013-02-22 19:16:00,
2013-02-22 14:26:00,38.6,22.9,30.28,NNW,333,2.0,2.0,53,0.00,,,0.00,Wunderground v.1.15,2013-02-22 19:26:00,
2013-02-22 14:36:00,39.3,22.7,30.28,NNW,333,2.0,4.0,51,0.00,,,0.00,Wunderground v.1.15,2013-02-22 19:36:00,
2013-02-22 14:41:00,39.1,21.5,30.28,NNW,333,3.0,6.0,49,0.00,,,0.00,Wunderground v.1.15,2013-02-22 19:41:00,
2013-02-22 14:50:00,38.0,23.3,30.28,NNW,333,5.0,5.0,55,0.00,,,0.00,Wunderground v.1.15,2013-02-22 19:50:00,
2013-02-22 14:56:00,37.9,24.4,30.28,NNW,335,4.0,5.0,58,0.00,,,0.00,Wunderground v.1.15,2013-02-22 19:56:00,
2013-02-22 15:01:00,37.2,23.8,30.28,NNW,335,5.0,5.0,58,0.00,,,0.00,Wunderground v.1.15,2013-02-22 20:01:00,
2013-02-22 15:11:00,37.1,23.3,30.28,NNW,335,3.0,3.0,57,0.00,,,0.00,Wunderground v.1.15,2013-02-22 20:11:00,
2013-02-22 15:21:00,37.8,22.2,30.28,NNW,335,0.0,0.0,53,0.00,,,0.00,Wunderground v.1.15,2013-02-22 20:21:00,
2013-02-22 15:26:00,38.2,21.6,30.28,NNW,335,0.0,0.0,51,0.00,,,0.00,Wunderground v.1.15,2013-02-22 20:26:00,
2013-02-22 15:36:00,38.2,22.6,30.28,NNW,335,0.0,1.0,53,0.00,,,0.00,Wunderground v.1.15,2013-02-22 20:36:00,
2013-02-22 15:46:00,38.4,21.4,30.28,NNW,335,0.0,0.0,50,0.00,,,0.00,Wunderground v.1.15,2013-02-22 20:46:00,
2013-02-22 15:51:00,38.6,22.5,30.28,NNW,335,0.0,0.0,52,0.00,,,0.00,Wunderground v.1.15,2013-02-22 20:51:00,
2013-02-22 16:01:00,38.5,22.4,30.28,NNW,335,0.0,2.0,52,0.00,,,0.00,Wunderground v.1.15,2013-02-22 21:01:00,
2013-02-22 16:11:00,37.8,21.3,30.28,NNW,335,1.0,1.0,51,0.00,,,0.00,Wunderground v.1.15,2013-02-22 21:11:00,
2013-02-22 16:16:00,37.6,22.4,30.28,NNW,335,0.0,1.0,54,0.00,,,0.00,Wunderground v.1.15,2013-02-22 21:16:00,
2013-02-22 16:26:00,37.3,22.2,30.28,NNW,335,0.0,0.0,54,0.00,,,0.00,Wunderground v.1.15,2013-02-22 21:26:00,
2013-02-22 16:36:00,37.0,21.4,30.28,NNW,335,0.0,0.0,53,0.00,,,0.00,Wunderground v.1.15,2013-02-22 21:36:00,
2013-02-22 16:41:00,36.8,21.7,30.28,NNW,335,0.0,0.0,54,0.00,,,0.00,Wunderground v.1.15,2013-02-22 21:41:00,
2013-02-22 16:51:00,36.0,21.4,30.28,NNW,335,0.0,0.0,55,0.00,,,0.00,Wunderground v.1.15,2013-02-22 21:51:00,
2013-02-22 16:56:00,35.6,22.3,30.28,NNW,335,0.0,0.0,58,0.00,,,0.00,Wunderground v.1.15,2013-02-22 21:56:00,
2013-02-22 17:01:00,35.1,22.2,30.28,NNW,335,0.0,0.0,59,0.00,,,0.00,Wunderground v.1.15,2013-02-22 22:01:00,
2013-02-22 17:11:00,34.2,21.7,30.28,NNW,335,0.0,0.0,60,0.00,,,0.00,Wunderground v.1.15,2013-02-22 22:11:00,
2013-02-22 17:16:00,33.8,22.1,30.28,NNW,335,0.0,0.0,62,0.00,,,0.00,Wunderground v.1.15,2013-02-22 22:16:00,
2013-02-22 17:21:00,33.4,22.1,30.28,NNW,335,0.0,0.0,63,0.00,,,0.00,Wunderground v.1.15,2013-02-22 22:21:00,
2013-02-22 17:31:00,32.7,22.9,30.28,NNW,335,1.0,1.0,67,0.00,,,0.00,Wunderground v.1.15,2013-02-22 22:31:00,
2013-02-22 17:41:00,31.9,23.2,30.28,NNW,335,1.0,1.0,70,0.00,,,0.00,Wunderground v.1.15,2013-02-22 22:41:00,
2013-02-22 17:46:00,31.7,22.7,30.28,NNW,335,1.0,1.0,69,0.00,,,0.00,Wunderground v.1.15,2013-02-22 22:46:00,
2013-02-22 17:56:00,31.8,23.1,30.28,NNW,335,0.0,0.0,70,0.00,,,0.00,Wunderground v.1.15,2013-02-22 22:56:00,
2013-02-22 18:01:00,31.9,23.2,30.28,NNW,335,0.0,0.0,70,0.00,,,0.00,Wunderground v.1.15,2013-02-22 23:01:00,
2013-02-22 18:11:00,31.9,23.9,30.28,NNW,335,0.0,0.0,72,0.00,,,0.00,Wunderground v.1.15,2013-02-22 23:11:00,
2013-02-22 18:21:00,31.8,24.5,30.28,NNW,335,0.0,0.0,74,0.00,,,0.00,Wunderground v.1.15,2013-02-22 23:21:00,
2013-02-22 18:31:00,31.6,24.6,30.29,NNW,335,0.0,0.0,75,0.00,,,0.00,Wunderground v.1.15,2013-02-22 23:31:00,
2013-02-22 18:36:00,31.5,24.5,30.29,NNW,335,0.0,0.0,75,0.00,,,0.00,Wunderground v.1.15,2013-02-22 23:36:00,
2013-02-22 18:46:00,31.0,24.6,30.29,NNW,335,1.0,1.0,77,0.00,,,0.00,Wunderground v.1.15,2013-02-22 23:46:00,
2013-02-22 18:51:00,31.0,24.6,30.29,NNW,335,1.0,1.0,77,0.00,,,0.00,Wunderground v.1.15,2013-02-22 23:51:00,
2013-02-22 19:01:00,30.8,24.7,30.28,NNW,335,0.0,1.0,78,0.00,,,0.00,Wunderground v.1.15,2013-02-23 00:01:00,
2013-02-22 19:11:00,30.9,24.8,30.29,NNW,335,0.0,2.0,78,0.00,,,0.00,Wunderground v.1.15,2013-02-23 00:11:00,
2013-02-22 19:16:00,30.7,24.7,30.29,NNW,335,1.0,2.0,78,0.00,,,0.00,Wunderground v.1.15,2013-02-23 00:16:00,
2013-02-22 19:26:00,30.3,24.6,30.29,NNW,335,1.0,1.0,79,0.00,,,0.00,Wunderground v.1.15,2013-02-23 00:26:00,
2013-02-22 19:36:00,30.3,24.6,30.30,NNW,335,1.0,2.0,79,0.00,,,0.00,Wunderground v.1.15,2013-02-23 00:36:00,
2013-02-22 19:41:00,30.2,24.8,30.30,NNW,335,1.0,1.0,80,0.00,,,0.00,Wunderground v.1.15,2013-02-23 00:41:00,
2013-02-22 19:51:00,30.0,24.6,30.30,NNW,335,1.0,1.0,80,0.00,,,0.00,Wunderground v.1.15,2013-02-23 00:51:00,
2013-02-22 19:56:00,29.9,24.8,30.30,NNW,335,2.0,2.0,81,0.00,,,0.00,Wunderground v.1.15,2013-02-23 00:56:00,
2013-02-22 20:01:00,29.8,24.7,30.29,NNW,335,1.0,1.0,81,0.00,,,0.00,Wunderground v.1.15,2013-02-23 01:01:00,
2013-02-22 20:11:00,29.8,25.0,30.29,NNW,335,1.0,1.0,82,0.00,,,0.00,Wunderground v.1.15,2013-02-23 01:11:00,
2013-02-22 20:16:00,29.9,25.1,30.30,NNW,335,1.0,1.0,82,0.00,,,0.00,Wunderground v.1.15,2013-02-23 01:16:00,
2013-02-22 20:21:00,30.1,25.0,30.30,NNW,335,1.0,1.0,81,0.00,,,0.00,Wunderground v.1.15,2013-02-23 01:21:00,
2013-02-22 20:31:00,30.1,25.0,30.30,NNW,335,1.0,2.0,81,0.00,,,0.00,Wunderground v.1.15,2013-02-23 01:31:00,
2013-02-22 20:41:00,30.2,25.4,30.31,NNW,335,1.0,2.0,82,0.00,,,0.00,Wunderground v.1.15,2013-02-23 01:41:00,
2013-02-22 20:46:00,30.2,25.1,30.31,NNW,335,1.0,2.0,81,0.00,,,0.00,Wunderground v.1.15,2013-02-23 01:46:00,
2013-02-22 20:51:00,30.3,25.2,30.31,NNW,335,1.0,2.0,81,0.00,,,0.00,Wunderground v.1.15,2013-02-23 01:51:00,
2013-02-22 20:56:00,30.5,25.4,30.31,NNW,335,1.0,2.0,81,0.00,,,0.00,Wunderground v.1.15,2013-02-23 01:56:00,
2013-02-22 21:01:00,30.8,25.7,30.31,NNW,335,0.0,0.0,81,0.00,,,0.00,Wunderground v.1.15,2013-02-23 02:01:00,
2013-02-22 21:11:00,30.8,25.1,30.31,NNW,335,0.0,2.0,79,0.00,,,0.00,Wunderground v.1.15,2013-02-23 02:11:00,
2013-02-22 21:21:00,29.9,24.8,30.30,NNW,335,2.0,2.0,81,0.00,,,0.00,Wunderground v.1.15,2013-02-23 02:21:00,
2013-02-22 21:26:00,29.6,24.8,30.30,NNW,335,2.0,2.0,82,0.00,,,0.00,Wunderground v.1.15,2013-02-23 02:26:00,
2013-02-22 21:36:00,29.5,24.7,30.30,NNW,335,1.0,2.0,82,0.00,,,0.00,Wunderground v.1.15,2013-02-23 02:36:00,
2013-02-22 21:46:00,29.7,24.9,30.29,NNW,335,2.0,4.0,82,0.00,,,0.00,Wunderground v.1.15,2013-02-23 02:46:00,
2013-02-22 21:51:00,29.5,24.7,30.30,NNW,335,3.0,3.0,82,0.00,,,0.00,Wunderground v.1.15,2013-02-23 02:51:00,
2013-02-22 22:01:00,29.3,24.8,30.30,NNW,335,1.0,1.0,83,0.00,,,0.00,Wunderground v.1.15,2013-02-23 03:01:00,
2013-02-22 22:11:00,29.2,25.0,30.29,NNW,335,1.0,1.0,84,0.00,,,0.00,Wunderground v.1.15,2013-02-23 03:11:00,
2013-02-22 22:16:00,29.2,25.0,30.29,NNW,335,1.0,1.0,84,0.00,,,0.00,Wunderground v.1.15,2013-02-23 03:16:00,
2013-02-22 22:26:00,29.4,25.4,30.29,NNW,335,1.0,1.0,85,0.00,,,0.00,Wunderground v.1.15,2013-02-23 03:26:00,
2013-02-22 22:31:00,29.5,25.5,30.29,NNW,335,1.0,2.0,85,0.00,,,0.00,Wunderground v.1.15,2013-02-23 03:31:00,
2013-02-22 22:41:00,29.7,25.7,30.29,NNW,335,1.0,1.0,85,0.00,,,0.00,Wunderground v.1.15,2013-02-23 03:41:00,
2013-02-22 22:46:00,29.7,25.7,30.29,NNW,335,0.0,1.0,85,0.00,,,0.00,Wunderground v.1.15,2013-02-23 03:46:00,
2013-02-22 22:56:00,29.7,25.7,30.29,NNW,335,0.0,1.0,85,0.00,,,0.00,Wunderground v.1.15,2013-02-23 03:56:00,
2013-02-22 23:01:00,29.7,25.7,30.30,NNW,335,0.0,0.0,85,0.00,,,0.00,Wunderground v.1.15,2013-02-23 04:01:00,
2013-02-22 23:11:00,29.7,26.0,30.29,NNW,335,0.0,0.0,86,0.00,,,0.00,Wunderground v.1.15,2013-02-23 04:11:00,
2013-02-22 23:21:00,29.6,25.9,30.29,NNW,335,0.0,0.0,86,0.00,,,0.00,Wunderground v.1.15,2013-02-23 04:21:00,
2013-02-22 23:31:00,29.6,25.9,30.29,NNW,335,1.0,2.0,86,0.00,,,0.00,Wunderground v.1.15,2013-02-23 04:31:00,
2013-02-22 23:36:00,29.6,25.9,30.29,NNW,335,2.0,2.0,86,0.00,,,0.00,Wunderground v.1.15,2013-02-23 04:36:00,
2013-02-22 23:46:00,29.6,25.6,30.29,NNW,335,2.0,2.0,85,0.00,,,0.00,Wunderground v.1.15,2013-02-23 04:46:00,
2013-02-22 23:51:00,29.6,25.4,30.29,NNW,335,2.0,2.0,84,0.00,,,0.00,Wunderground v.1.15,2013-02-23 04:51:00,